User: anonymous
Location: Heilwood
(40.6210°N, 78.9150°W)
Time: 08:44:01
(UTC-04:00)
Language:

Iridium 4 Rocket - Orbit

View from above orbital plane
View from above orbital plane
View from above satellite
View from above satellite

Ground track
Ground track

The orbit data is extracted from the following two-line orbital elements,

1 24797U 97020F   14209.64336455  .00000591  00000-0  12402-3 0  7231
2 24797 086.8958 019.3495 0226612 231.3026 176.0556 14.43113531905800
Epoch (UTC): 28 July 2014 15:26:26
Eccentricity: 0.0226612
inclination: 86.8958°
perigee height: 587 km
apogee height: 910 km
right ascension of ascending node: 19.3495°
argument of perigee: 231.3026°
revolutions per day: 14.43113531
mean anomaly at epoch: 176.0556°
orbit number at epoch: 90580

The dashed part of the orbit path shows where the satellite is in the earth's shadow,  

DLR